Tracking 30918 objects as of 2-Jul-2025
HD Live streaming from Space Station
objects crossing your sky now

STARLINK-1244

Track STARLINK-1244 now!
10-day predictions
STARLINK-1244 is classified as:


NORAD ID: 45196
Int'l Code: 2020-012U
Perigee: 370.0 km
Apogee: 374.5 km
Inclination: 53.0 °
Period: 91.8 minutes
Semi major axis: 6743 km
RCS: Unknown
Launch date: February 17, 2020
Source: United States (US)
Launch site: AIR FORCE EASTERN TEST RANGE (AFETR)
Your satellite tracking list
Your tracking list is empty




NASA's NSSDC Master Catalog

Two Line Element Set (TLE):
1 45196U 20012U   25183.12291890  .00134233  00000-0  11824-2 0  9995
2 45196  53.0480  79.7949 0003393 164.4962 195.6158 15.67831667296329
Source of the keplerian elements: AFSPC